Home   Weather   Caguas   Past weeks

Flag for Puerto Rico Past Weather in Caguas, Puerto Rico — Yesterday and Last 2 Weeks

Now
74 °F

Passing clouds.


Feels Like: 74 °F
Forecast: 65 / 83 °F
Wind: 5 mph from Southwest

Location: Luis Munoz Marin

Current Time: Jan 21, 2017 at 2:54:30 am

Latest Report: Jan 21, 2017 at 1:56 am


Visibility: 10 mi

Pressure: 30.00 "Hg

Humidity: 82%

Dew Point: 68 °F

Location of CaguasLocation

Past Weather in Caguas — Graph

°F

Caguas Temperature Yesterday

Maximum temperature yesterday: 81 °F (at 1:56 pm)
Minimum temperature yesterday: 69 °F (at 4:56 am)
Average temperature yesterday: 76 °F

High & Low Weather Summary for the Past Weeks

 TemperatureHumidityPressure
High87 °F (Jan 6, 12:56 pm)100% (Jan 11, 3:56 am)30.13 "Hg (Jan 11, 3:56 am)
Low68 °F (Jan 19, 5:56 am)49% (Jan 12, 12:56 pm)29.94 "Hg (Jan 10, 3:56 pm)
Average78 °F73%30.03 "Hg
* Reported Jan 6 12:56 am — Jan 21 12:56 am, Caguas, Weather by CustomWeather, © 2017

Note: Actual official high and low records may vary slightly from our data, if they occured in-between our weather recording intervals... More about our weather records

Advertising

Caguas Weather History for the Previous 24 Hours

Scroll right to see more
 ConditionsComfort  
Time TempWeatherWind HumidityBarometerVisibility
12:56 am
Sat, Jan 21
74 °FPassing clouds.5 mph85%30.02 "Hg10 mi
11:56 pm
Fri, Jan 20
77 °FPassing clouds.5 mph77%30.03 "Hg10 mi
10:56 pm78 °FPassing clouds.6 mph62%30.03 "Hg10 mi
9:56 pm78 °FPassing clouds.5 mph69%30.02 "Hg10 mi
8:56 pm77 °FPassing clouds.6 mph71%30.02 "Hg10 mi
7:56 pm78 °FPassing clouds.5 mph71%30.00 "Hg10 mi
6:56 pm78 °FPassing clouds.3 mph69%29.98 "Hg10 mi
5:56 pm78 °FScattered clouds.3 mph66%29.96 "Hg10 mi
4:56 pm79 °FScattered clouds.No wind65%29.96 "Hg10 mi
3:56 pm79 °FBroken clouds.10 mph67%29.96 "Hg10 mi
2:56 pm81 °FScattered clouds.8 mph62%29.96 "Hg10 mi
1:56 pm81 °FScattered clouds.6 mph60%29.97 "Hg10 mi
12:56 pm80 °FPassing clouds.5 mph62%29.99 "Hg10 mi
11:56 am80 °FPassing clouds.5 mph62%30.02 "Hg10 mi
10:56 am80 °FPassing clouds.3 mph58%30.03 "Hg10 mi
9:56 am79 °FPassing clouds.3 mph58%30.03 "Hg10 mi
8:56 am76 °FPassing clouds.No wind67%30.01 "Hg10 mi
7:56 am71 °FPassing clouds.No wind76%29.99 "Hg10 mi
6:56 am70 °FPassing clouds.5 mph79%29.97 "Hg10 mi
5:56 am69 °FPassing clouds.No wind81%29.96 "Hg10 mi
4:56 am69 °FPassing clouds.3 mph84%29.96 "Hg10 mi
3:56 am70 °FPassing clouds.No wind84%29.95 "Hg10 mi
2:56 am71 °FPassing clouds.No wind81%29.96 "Hg10 mi
Weather by CustomWeather, © 2017

See weather overviewHow to use our weather pages